Regional Weather Roundup
Issued by NWS

Home | Current Version | Previous Version | Text Only | Print | Product List | Glossary Off
Versions: 1 2 3 4 5 6 7 8 9 10 11 12 13 14 15 16 17 18 19 20 21 22 23 24 25 26 27 28 29 30 31 32 33 34 35 36 37 38 39 40 41 42 43 44 45 46 47 48 49 50

006
ASUS45 KPSR 051810
RWRAZ

ARIZONA HOURLY REGIONAL WEATHER ROUNDUP
NATIONAL WEATHER SERVICE PHOENIX AZ
1100 AM MST FRI FEB 05 2016

NOTE: FAIR INDICATES FEW OR NO CLOUDS BELOW 12,000 FEET WITH NO
SIGNIFICANT WEATHER AND/OR OBSTRUCTIONS TO VISIBILITY.

AZZ001>003-036-051900-
NORTHWEST ARIZONA

CITY           SKY/WX    TMP DP  RH WIND       PRES   REMARKS
BULLHEAD CITY  SUNNY     55  25  30 N32G41    30.47R
KINGMAN        SUNNY     47  22  37 N15       30.46S
6HR MIN TEMP:  28; 6HR MAX TEMP:  47;

$$

AZZ004>008-015-016-018-051900-
NORTH CENTRAL ARIZONA

CITY           SKY/WX    TMP DP  RH WIND       PRES   REMARKS
GRAND CANYON   SUNNY     32  15  49 NE18G25   30.47S WCI  20
6HR MIN TEMP:   5; 6HR MAX TEMP:  32;

WILLIAMS       SUNNY     32  12  43 NE14G22   30.48R WCI  22
PRESCOTT       SUNNY     42  18  37 NE7       30.43R
6HR MIN TEMP:  23; 6HR MAX TEMP:  42;

FLAGSTAFF      SUNNY     28  14  55 NE23G35   30.41R WCI  14
6HR MIN TEMP:  21; 6HR MAX TEMP:  28;

PAYSON         SUNNY     41  14  33 NE12G20   30.42R
PAGE           SUNNY     33  24  69 NE6       30.55R WCI  28
6HR MIN TEMP:  23; 6HR MAX TEMP:  33;

$$

AZZ009>014-017-051900-
NORTHEAST ARIZONA

CITY           SKY/WX    TMP DP  RH WIND       PRES   REMARKS
WINSLOW        SUNNY     33  18  53 CALM      30.53S
6HR MIN TEMP:  13; 6HR MAX TEMP:  34;

SAINT JOHNS    SUNNY     34  16  47 VRB3      30.47R
6HR MIN TEMP:  13; 6HR MAX TEMP:  34;

WINDOW ROCK    SUNNY     30   0  27 N7        30.44R WCI  23
6HR MIN TEMP:   7; 6HR MAX TEMP:  30;

SHOW LOW       SUNNY     28  16  59 N15G23    30.45R WCI  17
$$

AZZ023-051900-
GREATER PHOENIX AREA

CITY           SKY/WX    TMP DP  RH WIND       PRES   REMARKS
PHOENIX        MOSUNNY   59  20  22 NE3       30.37R
6HR MIN TEMP:  39; 6HR MAX TEMP:  59;

BUCKEYE        SUNNY     57  23  26 W3        30.40S
GLENDALE       MOSUNNY   59  27  29 VRB5      30.39R
LUKE AFB       SUNNY     62  20  19 N17       30.36S
6HR MIN TEMP:  43; 6HR MAX TEMP:  62; 6HR PCP: TRACE;

DEER VALLEY    SUNNY     60  17  18 NE5       30.36S
6HR MIN TEMP:  40; 6HR MAX TEMP:  60;

SCOTTSDALE     SUNNY     59  17  19 NE13      30.38S
6HR MIN TEMP:  43; 6HR MAX TEMP:  60;

MESA-FALCON    SUNNY    N/A N/A N/A NE7       30.37S
MESA-GATEWAY   MOSUNNY   55  21  26 CALM      30.37R
CHANDLER       MOSUNNY   61  18  18 N17       30.37R
$$

AZZ027-028-051900-
SOUTHWEST MARICOPA COUNTY AND PINAL COUNTY

CITY           SKY/WX    TMP DP  RH WIND       PRES   REMARKS
CASA GRANDE    SUNNY     57  19  23 N8        30.37S
6HR MIN TEMP:  30; 6HR MAX TEMP:  57;

GILA BEND      MOSUNNY   58  22  25 N6        30.37R
6HR MIN TEMP:  32; 6HR MAX TEMP:  58;

$$

AZZ503-504-507>509-051900-
SOUTHEAST ARIZONA

CITY           SKY/WX    TMP DP  RH WIND       PRES   REMARKS
TUCSON         SUNNY     54  12  18 VRB5      30.34R
6HR MIN TEMP:  31; 6HR MAX TEMP:  54;

DAVIS-MONTHAN  SUNNY     52  15  22 S1        30.32R
6HR MIN TEMP:  30; 6HR MAX TEMP:  52;

RYAN FIELD     SUNNY     55  18  22 CALM      30.35R
NOGALES        SUNNY     54  11  18 CALM      30.28S
6HR MIN TEMP:  26; 6HR MAX TEMP:  54;

SIERRA VISTA   SUNNY     50  10  19 NE9       30.34R
6HR MIN TEMP:  28; 6HR MAX TEMP:  50;

DOUGLAS        SUNNY     48  11  22 VRB6      30.34S
6HR MIN TEMP:  14; 6HR MAX TEMP:  48;

SAFFORD        SUNNY     45  15  30 CALM      30.39R
6HR MIN TEMP:  22; 6HR MAX TEMP:  45;

$$

AZZ020-021-025-026-031-051900-
SOUTHWEST ARIZONA

CITY           SKY/WX    TMP DP  RH WIND       PRES   REMARKS
YUMA           MOSUNNY   62  24  23 N15       30.40R
6HR MIN TEMP:  52; 6HR MAX TEMP:  62;

$$

CAZ031-033-041-043-047-048-061-051900-
SOUTHERN CALIFORNIA

CITY           SKY/WX    TMP DP  RH WIND       PRES   REMARKS
DOWNTOWN L.A.  SUNNY     67  25  20 CALM      30.33S
6HR MIN TEMP:  46; 6HR MAX TEMP:  67;

L.A. AIRPORT   SUNNY     66  26  22 NE5       30.34R
6HR MIN TEMP:  48; 6HR MAX TEMP:  66;

SAN DIEGO      MOSUNNY   66  29  24 CALM      30.32S
6HR MIN TEMP:  48; 6HR MAX TEMP:  66;

BURBANK        SUNNY     62  26  25 CALM      30.34R
6HR MIN TEMP:  42; 6HR MAX TEMP:  62;

ONTARIO        MOSUNNY   63  25  23 NW6       30.34R
6HR MIN TEMP:  38; 6HR MAX TEMP:  63;

RIVERSIDE      SUNNY     66  21  18 E8        30.36R
6HR MIN TEMP:  46; 6HR MAX TEMP:  66;

PALM SPRINGS   SUNNY     67  21  17 NW7       30.44S
6HR MIN TEMP:  53; 6HR MAX TEMP:  67;

EL CENTRO NAS  MOSUNNY   67  24  19 NW5       30.43R
6HR MIN TEMP:  45; 6HR MAX TEMP:  67;

IMPERIAL       SUNNY     63  26  24 NW3       30.41R
6HR MIN TEMP:  39; 6HR MAX TEMP:  63;

BLYTHE         SUNNY     62  24  23 N17       30.43S
6HR MIN TEMP:  48; 6HR MAX TEMP:  62;

NEEDLES        SUNNY     59  25  27 N24       30.46S
6HR MIN TEMP:  48; 6HR MAX TEMP:  59;

$$

NVZ020-UTZ003-051900-
SOUTHERN NEVADA-UTAH

CITY           SKY/WX    TMP DP  RH WIND       PRES   REMARKS
LAS VEGAS      SUNNY     49  22  34 CALM      30.50S
6HR MIN TEMP:  38; 6HR MAX TEMP:  49;

SALT LAKE CITY MOSUNNY   31  24  75 S7        30.58R WCI  24
6HR MIN TEMP:  26; 6HR MAX TEMP:  31; 6HR PCP: TRACE;

$$

NMZ009-TXZ055-051900-
NEW MEXICO-WEST TEXAS

CITY           SKY/WX    TMP DP  RH WIND       PRES   REMARKS
ALBUQUERQUE    MOSUNNY   32  12  43 N13       30.42R WCI  22
6HR MIN TEMP:  23; 6HR MAX TEMP:  32;

EL PASO        MOSUNNY   46  10  23 N15       30.34F
6HR MIN TEMP:  26; 6HR MAX TEMP:  46;

$$


........................KEY........................
SKY/WX - SKY CONDITION/WEATHER
TMP    - TEMPERATURE IN FAHRENHEIT
DP     - DEW POINT IN FAHRENHEIT
RH     - RELATIVE HUMIDITY IN PERCENT
WIND   - DIRECTION AND SPEED IN MILES PER HOUR (MPH)
VRB    - VARIABLE WIND DIRECTION
PRES   - MEAN SEA LEVEL PRESSURE IN INCHES OF MERCURY
         F - FALLING PRESSURE   R - RISING PRESSURE
         S - STEADY PRESSURE
VSB    - VISIBILITY IN MILES
HX     - HEAT INDEX IN FAHRENHEIT
WCI    - WIND CHILL INDEX IN FAHRENHEIT
TC     - TEMPERATURE IN CELSIUS WHICH IS ALSO KNOWN AS
         TEMPERATURE IN CENTIGRADE
AFB    - AIR FORCE BASE
         LUKE AFB IS LUKE AIR FORCE BASE
         DAVIS-MONTHAN IS DAVIS-MONTHAN AIR FORCE BASE
NAS    - NAVAL AIR STATION
         EL CENTRO NAS IS EL CENTRO NAVAL AIR STATION
N/A    - NOT AVAILABLE





USA.gov is the U.S. government's official web portal to all federal, state and local government web resources and services.